Location: Newark
(42.7133°N, 87.7910°W)
Time: 08:23:06
(UTC+00:00)

Vanguard 1 - Pass Details

Date: 22 September 2019
Orbit: 653 x 3830 km, 34.2° (Epoch: 20 October)

Event Time Altitude Azimuth Distance (km) Brightness Sun altitude
Rises 14:37:13 0° 281° (W) 6,900 13.9 30.5°
Reaches altitude 10° 14:44:23 10° 266° (W) 5,219 13.4 31.6°
Maximum altitude 14:52:20 17° 232° (SW) 3,761 13.0 32.8°
Drops below altitude 10° 14:58:12 10° 194° (SSW) 3,641 13.4 33.6°
Sets 15:01:55 0° 174° (S) 4,161 13.8 34.2°
